Flag for U.S.A. Weather past 2 weeks in Antioch, California, U.S.A.

Now
75 °F

Sunny.


Feels Like: 77 °F
Forecast: 52 / 76 °F
Wind: 10 mph from West

Location: Buchanan Field

Current Time: Oct 22, 2014 at 4:16:40 PM

Latest Report: Oct 22, 2014 at 3:53 PM


Visibility: 10 mi

Pressure: 29.96 "Hg

Humidity: 37%

Dew point: 47 °F

Location of AntiochLocation

Historic Weather in Antioch — Graph

°F

Antioch temperature yesterday

Maximum temperature yesterday: 72 °F (at 3:53 PM)
Minimum temperature yesterday: 49 °F (at 7:53 AM)
Average temperature yesterday: 60 °F

Past Weeks' High & Low Weather Summary

 TemperatureHumidityPressure
High94 °F (Oct 8, 3:53 PM)93% (Oct 9, 6:53 AM)30.07 "Hg (Oct 9, 6:53 AM)
Low49 °F (Oct 21, 7:53 AM)6% (Oct 12, 2:53 PM)29.76 "Hg (Oct 8, 5:53 PM)
Average66 °F61%29.91 "Hg
* Reported Oct 7 2:53 PM — Oct 22 2:53 PM, Antioch, Weather by CustomWeather, © 2014

Note: Actual official high and low records may vary slightly from our data, if they occured in-between our weather recording intervals... More about our weather records

Advertising

Antioch weather history for previous 24 hours

 ConditionsComfort  
Time TempWeatherWind HumidityBarometerVisibility
2:53 PM
Oct 22
75 °FSunny.8 mph37%29.98 "Hg10 mi
1:53 PM74 °FSunny.12 mph38%29.99 "Hg10 mi
12:53 PM72 °FSunny.9 mph38%30.01 "Hg10 mi
11:53 AM70 °FSunny.7 mph38%30.03 "Hg10 mi
10:53 AM66 °FSunny.6 mph49%30.04 "Hg10 mi
9:53 AM60 °FSunny.3 mph65%30.03 "Hg10 mi
8:53 AM55 °FSunny.3 mph77%30.02 "Hg10 mi
7:53 AM51 °FClear.3 mph86%30.00 "Hg10 mi
6:53 AM51 °FClear.No wind83%30.00 "Hg10 mi
5:53 AM51 °FClear.5 mph86%30.01 "Hg10 mi
4:53 AM52 °FClear.5 mph83%30.00 "Hg10 mi
3:53 AM52 °FClear.3 mph83%30.00 "Hg10 mi
2:53 AM52 °FClear.5 mph83%30.01 "Hg10 mi
1:53 AM53 °FClear.No wind80%30.00 "Hg10 mi
12:53 AM54 °FClear.3 mph80%30.01 "Hg10 mi
11:53 PM
Oct 21
56 °FClear.5 mph72%30.01 "Hg10 mi
10:53 PM58 °FClear.3 mph70%30.01 "Hg10 mi
9:53 PM60 °FClear.3 mph67%30.00 "Hg10 mi
8:53 PM61 °FClear.5 mph65%29.98 "Hg10 mi
7:53 PM62 °FClear.8 mph65%29.98 "Hg10 mi
6:53 PM64 °FSunny.7 mph58%29.97 "Hg10 mi
5:53 PM68 °FSunny.14 mph44%29.97 "Hg10 mi
4:53 PM72 °FSunny.12 mph33%29.96 "Hg10 mi
Weather by CustomWeather, © 2014

See weather overviewHow to use our weather pages